Погода в Александрии

Египет     31°12′52″N   29°56′44″E
темп.,
°C
ветер,
м/с
пор.,
м/с
влажн.,
%
обл.,
%
осадки,
мм/ч
давл.,
гПа
погр.,
м
8 мая, сб
сб823:00+22в34604 0.0 101597
02:00+21вюв47555 0.0 1013129
05:00+21вюв510480 0.0 1012191
08:00+26юв58333 0.0 1013224
11:00+34ю352171 0.0 1012526
14:00+33св3530100 0.0 1010450
17:00+29св67415 0.0 1009149
20:00+28в7124521 0.0 1008159
9 мая, вс
вс923:00+28в3335100 0.0 101134
02:00+29ююз4530100 0.0 100879
05:00+23зсз5107499 0.0 1010197
08:00+23сз5778100 0.0 1011303
11:00+24сз5670100 0.0 1012424
14:00+24ссз577398 0.0 1011458
17:00+23ссз567578 0.0 1011417
20:00+22ссз5682100 0.0 1011370
10 мая, пн
пн1023:00+21сз4682100 0.0 1013388
02:00+21ссз57820 0.0 1012381
05:00+21ссз68800 0.0 1011400
08:00+22с56720 0.0 1012484
11:00+23ссз44650 0.0 1012565
14:00+24ссз65670 0.0 1012598
17:00+22ссз77720 0.0 1011524
20:00+21ссз67770 0.0 1012477
11 мая, вт
вт1123:00+21ссз56780 0.0 1012475
02:00+20ссз56790 0.0 1011475
05:00+20ссз57770 0.0 1011506
08:00+21с45680 0.0 1012642
11:00+22ссз44620 0.0 1012662
14:00+23ссз55615 0.0 1011686
17:00+22ссз566734 0.0 1011678
20:00+21ссз67754 0.0 1011645
12 мая, ср
ср1223:00+20ссз46760 0.0 1012576
02:00+20с34786 0.0 1011535
05:00+19ссз45770 0.0 1011507
08:00+21с44660 0.0 1012621
11:00+22ссз54610 0.0 1012643
14:00+23ссз66600 0.0 1012675
17:00+22ссз56640 0.0 1011575
20:00+21с45715 0.0 1012454